Flag for Saudi Arabia Weather past 2 weeks in Makkah, Saudi Arabia

Now
100 °F

Sunny.


Feels Like: 108 °F
Forecast: 79 / 108 °F
Wind: 16 mph from West

Location: Jeddah King Abdul Aziz International Airport

Current Time: Jul 7, 2015 at 2:52:00 PM

Latest Report: Jul 7, 2015 at 2:00 PM


Visibility: 10 mi

Pressure: 29.68 "Hg

Humidity: 37%

Dew point: 70 °F

Location of MakkahLocation

Historic Weather in Makkah — Graph

°F

Makkah temperature yesterday

Maximum temperature yesterday: 100 °F (at 2:00 PM)
Minimum temperature yesterday: 90 °F (at 12:00 AM)
Average temperature yesterday: 93 °F

Past Weeks' High & Low Weather Summary

 TemperatureHumidityPressure
High104 °F (Jun 29, 1:00 PM)89% (Jun 24, 6:00 AM)29.80 "Hg (Jun 24, 6:00 AM)
Low73 °F (Jun 23, 6:00 AM)11% (Jun 28, 12:00 PM)29.59 "Hg (Jul 5, 9:00 PM)
Average89 °F52%29.72 "Hg
* Reported Jun 22 2:00 PM — Jul 7 2:00 PM, Makkah, Weather by CustomWeather, © 2015

Note: Actual official high and low records may vary slightly from our data, if they occured in-between our weather recording intervals... More about our weather records

Advertising

Makkah weather history for previous 24 hours

 ConditionsComfort  
Time TempWeatherWind HumidityBarometerVisibility
2:00 PM
Tue, Jul 7
100 °FSunny.16 mph37%29.68 "Hg10 mi
1:00 PM100 °FPassing clouds.16 mph35%29.68 "HgN/A
12:00 PM99 °FPassing clouds.16 mph37%29.71 "HgN/A
11:00 AM97 °FPassing clouds.14 mph44%29.71 "HgN/A
10:00 AM95 °FPassing clouds.14 mph50%29.71 "HgN/A
9:00 AM91 °FScattered clouds.14 mph52%29.68 "HgN/A
8:00 AM90 °FScattered clouds.9 mph55%29.68 "HgN/A
7:00 AM88 °FScattered clouds.9 mph62%29.65 "HgN/A
6:00 AM86 °FSunny.6 mph66%29.65 "Hg10 mi
5:00 AM88 °FClear.5 mph55%29.65 "Hg10 mi
4:00 AM90 °FClear.6 mph41%29.62 "Hg10 mi
3:00 AM93 °FPassing clouds.5 mph30%29.62 "HgN/A
2:00 AM93 °FPassing clouds.9 mph34%29.62 "HgN/A
1:00 AM93 °FClear.7 mph44%29.65 "Hg10 mi
12:00 AM93 °FClear.12 mph44%29.65 "Hg10 mi
11:00 PM
Mon, Jul 6
93 °FClear.12 mph44%29.68 "Hg10 mi
10:00 PM93 °FClear.12 mph44%29.68 "Hg10 mi
9:00 PM93 °FClear.12 mph41%29.68 "Hg10 mi
8:00 PM91 °FClear.12 mph46%29.65 "Hg10 mi
7:00 PM95 °FSunny.14 mph36%29.65 "Hg10 mi
6:00 PM99 °FSunny.14 mph33%29.65 "Hg10 mi
5:00 PM95 °FSunny.16 mph44%29.65 "Hg10 mi
4:00 PM95 °FSunny.14 mph44%29.65 "Hg10 mi
3:00 PM100 °FSunny.16 mph33%29.65 "Hg10 mi
2:00 PM100 °FSunny.14 mph35%29.65 "Hg10 mi
Weather by CustomWeather, © 2015

See weather overviewHow to use our weather pages